Printer-friendly version

IAU Minor Planet Center

Minor Planet Center

MPEC 2008-G90 : 2008 GH110

The following Minor Planet Electronic Circular may be linked-to from your own Web pages, but must not otherwise be redistributed electronically.


Read MPEC 2008-G89 Read MPEC 2008-G91


M.P.E.C. 2008-G90                                Issued 2008 Apr. 15, 19:20 UT

     The Minor Planet Electronic Circulars contain information on unusual
         minor planets and routine data on comets.  They are published
   on behalf of Commission 20 of the International Astronomical Union by the
          Minor Planet Center, Smithsonian Astrophysical Observatory,
                          Cambridge, MA 02138, U.S.A.

             Prepared using the Tamkin Foundation Computer Network

                              MPC@CFA.HARVARD.EDU
          URL http://www.cfa.harvard.edu/iau/mpc.html  ISSN 1523-6714

                                  2008 GH110

Observations:
     K08GB0H* C2008 04 14.46285 16 07 46.99 -04 21 27.4          19.6 V EG090G96
     K08GB0H  C2008 04 14.46970 16 07 46.30 -04 21 02.2          19.4 V EG090G96
     K08GB0H  C2008 04 14.47659 16 07 45.66 -04 20 36.8          19.6 V EG090G96
     K08GB0H  C2008 04 14.48344 16 07 44.97 -04 20 11.6          19.7 V EG090G96
     K08GB0H  C2008 04 14.48919 16 07 44.47 -04 19 50.4          19.7 V EG090G96
     K08GB0H  C2008 04 14.49098 16 07 44.29 -04 19 43.8          19.6 V EG090G96
     K08GB0H  C2008 04 14.49276 16 07 44.11 -04 19 37.2          19.8 V EG090G96
     K08GB0H  C2008 04 14.49461 16 07 43.93 -04 19 30.8          19.8 V EG090G96
     K08GB0H  C2008 04 15.29122916 06 32.46 -03 30 47.8          20.3 V EG090H55
     K08GB0H  C2008 04 15.29562316 06 32.05 -03 30 31.8          20.2 V EG090H55
     K08GB0H  C2008 04 15.30002516 06 31.62 -03 30 15.7          20.4 V EG090H55
     K08GB0H  C2008 04 15.33439 16 06 28.79 -03 28 07.6          19.8 R EG090448
     K08GB0H  C2008 04 15.34174 16 06 28.00 -03 27 40.0          19.4 R EG090854
     K08GB0H  C2008 04 15.34750 16 06 27.28 -03 27 20.2          20.1 R EG090448
     K08GB0H  C2008 04 15.35132 16 06 27.01 -03 27 02.2          19.7 R EG090854
     K08GB0H  C2008 04 15.36054 16 06 26.01 -03 26 31.6          19.8 R EG090448
     K08GB0H  C2008 04 15.36091 16 06 26.18 -03 26 29.8          19.5 R EG090854

Observer details:
448 Desert Moon Observatory.  Observer B. L. Stevens.  0.3-m
    Schmidt-Cassegrain + CCD.
854 Sabino Canyon Observatory, Tucson.  Observer J. E. McGaha.  0.36-m f/10.0
    Schmidt-Cassegrain + CCD.
G96 Mt. Lemmon Survey.  Observer E. Beshore.  Measurers E. C. Beshore,
    A. Boattini, G. J. Garradd, A. R. Gibbs, A. D. Grauer, R. E. Hill,
    R. A. Kowalski, S. M. Larson, R. H. McNaught.  1.5-m reflector + CCD.
H55 Astronomical Research Observatory, Charleston.  Observer R. Holmes.
    Measurers W. Ogloza, W. Kulynycz, I. Ulman.  0.81-m f/4.0 astrograph + CCD.

Orbital elements:
2008 GH110                                          PHA, Earth MOID = 0.0079 AU
Epoch 2008 May 14.0 TT = JDT 2454600.5                  MPC
M 126.70682              (2000.0)            P               Q
n   0.76511976     Peri.  241.74212     +0.10888450     -0.98000338
a   1.1839039      Node   203.82798     +0.99344054     +0.11316627
e   0.2555014      Incl.   24.34628     +0.03492947     -0.16366666
P   1.29           H   20.2           G   0.15           U   9
Residuals in seconds of arc
080414 G96  0.1-  0.1-    080414 G96  0.2+  0.2+    080415 854  0.0   0.0
080414 G96  0.5-  0.1-    080414 G96  0.2+  0.2-    080415 448  0.8-  1.2-
080414 G96  0.0   0.0     080415 H55  1.1-  0.1-    080415 854  0.4-  2.7+
080414 G96  0.4-  0.0     080415 H55  0.7-  0.2-    080415 448  0.2-  0.5-
080414 G96  0.4+  0.1+    080415 H55  0.6-  0.2-    080415 854  1.5+  0.1-
080414 G96  0.3+  0.1+    080415 448  2.1+  0.5-

Ephemeris:
2008 GH110               a,e,i = 1.18, 0.26, 24                  q = 0.8814
Date    TT    R. A. (2000) Decl.     Delta      r     Elong.  Phase     V
2008 04 14    16 08.47   -04 49.6    0.382    1.320   140.5    28.9    20.0
2008 04 24    15 51.20   +05 08.1    0.387    1.351   148.5    22.9    19.9
2008 05 04    15 30.72   +13 33.3    0.415    1.379   148.4    22.5    20.1
2008 05 14    15 10.86   +19 24.9    0.463    1.404   141.8    26.4    20.5
2008 05 24    14 54.87   +22 43.4    0.526    1.426   133.3    31.1    20.9
2008 06 03    14 44.22   +24 02.3    0.598    1.444   125.1    35.0    21.3
2008 06 13    14 39.11   +23 57.8    0.677    1.460   117.8    38.0    21.7
2008 06 23    14 38.94   +22 59.4    0.758    1.471   111.2    40.1    22.0

Sonia Keys                   (C) Copyright 2008 MPC           M.P.E.C. 2008-G90

Read MPEC 2008-G89 Read MPEC 2008-G91


Our Web policy. Index to the CBAT/MPC/ICQ pages.


Valid HTML 4.01!